SCP
0 0 0 0 0 0 0 0 0 0 0 1 1 1 1 1 1 2 2 2 1 1 1 0 0 0 0 0 0 0 0 0 0 0 0 1 1 1 1 1 0 0 0
0 0 0 0 0 0 0 0 0 0 0 0 1 1 1 1 1 2 2 2 2 1 1 0 0 0 0 0 0 0 0 0 0 0 0 0 1 1 1 1 0 0 0
0 0 0 0 0 0 0 0 0 0 0 0 1 1 1 1 1 2 2 2 2 1 1 0 0 0 0 0 0 0 0 0 0 0 0 0 1 1 1 0 0 0 0
0 0 0 0 0 0 0 0 0 0 0 0 1 1 1 1 1 1 2 2 2 1 1 0 0 0 0 0 0 0 0 0 0 0 0 0 0 1 0 0 0 0 0
0 0 0 0 0 0 0 0 1 0 0 1 1 1 1 1 1 1 1 1 1 1 1 1 0 0 0 0 0 0 0 0 0 0 0 0 0 0 0 0 0 0 0
0 0 0 0 0 0 0 1 1 1 0 1 1 0 0 1 1 1 1 1 1 1 1 1 0 0 0 0 0 0 0 0 0 0 0 0 0 0 1 1 0 0 0
0 0 0 0 0 0 0 1 1 1 1 1 1 0 0 0 0 1 1 1 1 1 1 1 1 0 0 0 0 0 0 0 0 0 0 0 0 0 0 1 1 0 0
0 0 0 0 0 0 0 1 1 1 1 1 1 0 0 0 0 1 1 1 1 1 1 1 1 1 0 0 0 0 0 0 0 0 0 0 0 0 0 1 1 1 1
0 0 0 0 0 0 0 0 0 0 0 0 0 0 0 0 0 1 1 1 1 1 1 1 1 1 1 0 0 0 0 0 0 0 0 0 0 0 0 1 1 1 1
0 0 0 0 0 0 0 0 0 0 0 0 0 0 0 0 0 1 1 1 1 0 0 0 0 0 0 0 0 0 0 0 0 0 0 0 0 0 0 0 1 1 1
0 0 0 0 0 0 0 0 0 0 0 0 0 0 0 0 0 1 1 1 0 0 0 0 0 0 0 0 0 0 0 0 0 0 0 0 0 0 0 0 0 0 1
0 0 0 0 0 0 0 0 0 0 0 0 0 0 0 0 0 0 0 0 0 0 0 0 0 0 0 0 0 0 0 0 0 0 0 0 0 0 0 0 0 0 1
0 0 0 0 0 0 0 0 0 0 0 0 0 0 0 0 0 0 0 0 0 0 0 0 0 0 0 0 0 0 0 0 0 0 0 0 0 0 0 0 0 0 0
0 0 0 0 0 0 0 0 0 0 0 0 0 0 0 0 0 0 0 0 0 0 0 0 0 0 0 0 0 0 0 0 0 0 0 0 0 0 0 0 0 0 0
0 0 0 0 0 0 0 0 0 0 0 0 0 0 0 0 0 0 0 0 0 0 0 0 0 0 0 0 0 0 0 0 0 0 0 0 0 0 0 0 0 0 0
0 0 0 0 0 0 0 0 0 0 0 0 0 0 0 0 0 0 0 0 0 0 0 0 0 0 0 0 0 0 0 0 0 0 0 0 0 0 0 0 0 0 0
0 0 0 0 0 0 0 0 0 0 0 0 0 0 0 0 0 0 0 0 0 0 0 0 0 0 0 0 0 0 0 0 0 0 0 0 0 0 0 0 0 0 0
0 0 0 0 0 0 0 0 0 0 0 0 0 0 0 0 0 0 0 0 0 0 0 0 0 0 0 0 0 0 0 0 1 0 0 0 0 0 0 0 0 0 0
0 0 0 0 0 0 0 0 0 0 0 0 0 0 0 0 0 0 0 0 0 0 0 0 0 0 0 0 0 0 0 0 0 0 0 0 0 0 0 0 0 0 0
0 0 0 0 0 0 0 0 0 0 0 0 0 0 0 0 0 0 0 0 0 0 0 0 0 0 0 0 0 0 0 0 0 0 0 0 0 0 0 0 0 0 0
0 0 0 0 0 0 0 0 0 0 0 0 0 0 0 0 0 0 0 0 0 0 0 0 0 0 0 0 0 0 0 0 0 0 0 0 0 0 0 0 0 0 0
0 0 0 0 0 0 0 0 0 0 0 0 0 0 0 0 0 0 0 0 0 0 0 0 0 0 0 0 0 0 0 0 0 0 0 0 0 0 0 0 0 0 0
0 0 0 0 0 0 0 0 0 0 0 0 0 0 0 0 0 0 0 0 0 0 0 0 0 0 0 0 0 0 0 0 0 0 0 0 0 0 0 0 0 0 0
0 0 0 0 0 0 0 0 0 0 0 0 0 0 0 0 0 0 0 0 0 0 0 0 0 0 0 0 0 0 0 0 0 0 0 0 0 0 0 0 0 0 0
0 0 0 0 0 0 0 0 0 0 0 0 0 0 0 0 0 0 0 0 0 0 0 0 0 0 0 0 0 0 0 0 0 0 0 0 0 0 0 0 0 0 0
0 0 0 0 0 0 0 0 0 0 0 0 0 0 0 0 0 0 0 0 0 0 0 0 0 0 0 0 0 0 0 0 0 0 0 0 0 0 0 0 0 0 0
Wind_Speed
7 6 7 7 7 7 7 8 8 8 7 6 6 5 4 4 3 2 2 3 3 3 2 2 2 2 2 2 3 2 3 3 3 4 5 5 5 5 4 5 5 5 5
8 7 6 7 7 7 8 8 8 8 8 6 5 4 4 3 2 2 2 3 3 3 2 2 2 2 2 2 2 2 3 2 3 4 5 5 4 4 4 5 5 5 5
10 8 8 7 7 7 7 7 8 8 8 8 5 5 4 3 3 3 2 2 2 3 3 3 2 2 2 2 3 3 4 3 3 3 4 4 5 4 4 5 5 6 6
9 8 8 8 7 6 6 6 7 8 8 8 7 8 6 5 4 3 2 2 2 2 2 2 2 2 2 2 3 3 4 4 3 3 4 5 6 6 5 4 5 6 7
9 8 8 8 6 5 5 5 6 7 8 8 8 8 6 5 4 4 3 3 2 2 2 2 2 2 2 2 3 3 4 4 4 4 4 5 5 7 7 8 6 6 6
8 8 7 6 5 5 5 5 6 6 7 8 8 8 8 7 6 5 4 3 2 1 2 2 2 2 2 3 3 3 4 4 5 4 4 4 5 5 6 9 9 8 6
7 7 7 7 6 6 6 6 6 6 6 7 7 8 8 8 7 6 5 3 2 2 2 2 2 2 3 3 3 4 4 5 5 5 5 5 6 5 6 8 9 9 7
6 6 7 6 6 6 6 6 6 6 6 6 6 6 6 5 4 5 4 3 2 2 2 2 3 3 3 3 4 4 5 5 5 6 6 5 5 5 6 7 8 9 8
5 5 6 6 6 6 6 6 6 6 6 6 6 5 5 5 4 4 3 2 2 2 2 2 3 3 3 3 4 4 5 5 5 6 6 6 6 6 6 6 7 8 9
4 4 5 5 5 5 5 6 6 6 6 6 5 4 4 4 3 3 3 2 2 1 2 2 3 3 3 4 4 4 5 5 6 5 7 7 6 6 6 7 7 8 9
4 4 5 5 5 5 5 6 6 6 6 5 5 5 4 3 3 2 2 2 2 1 1 2 2 3 4 4 4 5 5 6 6 6 7 8 8 7 7 7 7 8 8
2 3 4 5 5 5 5 5 5 5 5 5 4 4 4 3 2 2 1 1 1 1 1 2 3 3 4 5 5 5 6 6 7 7 7 7 6 8 7 7 8 8 8
2 2 4 4 5 5 5 5 5 5 5 5 4 4 3 3 2 1 1 1 0 1 1 2 3 4 4 5 5 6 6 6 7 7 7 7 8 8 7 8 8 7 7
2 3 3 4 4 5 5 5 4 4 4 4 4 4 3 3 2 1 1 0 1 1 2 3 4 4 5 5 5 5 6 6 6 7 7 8 8 8 9 8 8 8 8
3 3 3 3 4 5 5 4 4 4 4 4 4 3 3 2 2 1 1 1 1 1 2 3 4 4 4 4 5 6 6 7 7 7 8 8 9 10 9 8 8 9 8
4 3 3 4 4 5 4 4 4 4 4 4 3 3 3 2 2 1 1 1 1 2 3 3 4 4 4 5 8 8 7 7 7 8 8 8 9 10 12 13 13 12 10
4 4 4 4 4 4 4 4 4 4 4 3 3 2 2 2 1 1 1 2 2 3 3 4 4 5 5 7 8 9 8 7 7 8 8 7 7 9 9 10 13 12 13
4 4 3 3 3 3 4 4 4 4 4 3 2 2 2 1 1 1 2 2 2 3 3 4 4 5 6 8 9 9 7 7 7 8 8 8 9 8 9 9 10 10 10
2 2 3 3 4 4 4 4 4 4 3 2 2 1 1 1 1 2 2 2 2 3 3 4 5 6 6 8 9 9 6 6 7 7 8 8 9 10 11 10 10 10 9
1 2 3 4 4 3 4 4 4 3 2 2 1 1 1 2 2 2 2 2 2 3 3 4 5 6 6 8 9 9 5 6 6 6 7 8 10 11 11 9 9 10 10
2 3 3 3 3 3 4 4 3 2 2 1 1 1 1 1 1 2 2 2 2 3 3 4 5 5 6 7 8 9 5 6 6 6 6 6 10 12 12 11 9 10 11
2 3 3 3 3 3 4 3 3 2 2 1 1 1 0 1 1 1 2 2 3 3 4 4 5 4 5 6 7 9 9 9 7 6 6 7 11 12 12 10 10 12 11
2 2 3 3 3 2 3 3 2 2 2 1 1 0 0 1 1 2 2 2 2 3 3 4 4 4 4 5 8 9 10 10 7 6 9 11 12 11 9 9 11 9 6
2 2 3 3 3 2 2 2 2 2 2 1 1 0 0 1 2 2 2 2 3 3 3 4 4 5 5 5 5 5 6 7 7 6 8 10 10 8 8 8 6 5 5
2 2 3 3 2 2 2 2 2 2 1 1 0 0 1 1 2 2 2 3 3 4 4 4 4 5 5 6 9 8 6 6 6 7 5 5 5 5 5 4 4 4 4
2 2 3 3 2 2 2 2 1 1 1 0 0 1 1 2 2 2 3 4 5 6 7 7 7 6 8 11 11 11 11 11 10 7 5 5 5 5 5 5 5 4 5
Wind_Direction
228 216 209 206 204 200 194 192 189 183 177 175 175 176 177 175 170 168 173 180 180 182 191 207 217 232 237 251 265 270 272 282 292 280 280 271 259 257 257 263 264 265 266
218 208 200 197 199 198 194 194 191 187 185 183 179 179 172 172 168 165 178 187 185 185 193 210 217 223 236 246 256 261 267 275 283 282 285 279 257 243 258 265 266 269 267
218 208 203 198 196 197 196 195 193 189 186 180 171 163 160 165 173 178 181 191 189 194 197 209 220 227 237 243 252 257 259 266 270 277 275 281 280 295 254 258 265 270 273
216 209 203 199 199 198 191 192 191 189 184 181 181 179 181 183 190 183 181 189 198 202 205 217 225 231 241 248 254 259 263 262 261 259 263 271 285 283 284 265 264 272 272
209 206 202 199 196 190 187 186 185 186 184 185 184 184 184 180 174 174 177 187 200 211 215 223 232 237 245 251 258 261 261 260 260 260 261 263 268 267 273 281 286 279 273
206 206 201 192 190 183 180 182 180 182 182 182 183 185 182 180 177 182 183 189 196 215 229 241 241 243 249 252 257 258 257 260 262 262 259 261 262 266 267 274 281 283 283
202 199 193 191 189 184 178 179 179 181 182 182 185 186 186 186 187 187 191 194 200 221 237 244 248 249 251 255 258 257 259 258 260 260 261 261 262 268 269 273 279 281 281
198 198 195 192 187 182 178 177 178 179 180 181 183 184 185 189 190 193 194 198 209 222 236 243 250 257 260 260 258 259 260 259 257 261 261 261 262 262 262 268 278 281 278
197 195 194 191 186 183 181 178 176 176 178 178 176 178 178 179 183 189 196 198 205 217 227 240 252 258 262 265 266 261 261 262 261 261 262 262 260 258 260 261 264 271 280
191 194 193 188 185 181 178 177 176 173 173 174 172 171 173 171 175 180 186 189 194 215 238 246 258 266 269 269 268 268 266 264 263 262 262 263 261 257 255 255 258 259 266
191 191 184 178 174 172 172 172 170 168 167 167 166 165 159 159 166 170 174 173 182 206 243 262 274 277 277 277 275 272 272 270 269 267 265 266 267 265 260 257 257 257 259
188 181 172 168 167 166 165 163 164 163 163 159 157 153 148 155 161 159 162 167 178 240 275 288 285 285 282 281 277 275 274 273 273 274 272 273 274 274 271 265 263 262 261
183 174 170 170 167 164 163 160 160 159 155 153 150 148 151 153 153 150 151 177 197 287 300 293 288 287 286 285 283 280 279 279 278 276 274 275 276 275 277 275 270 269 270
196 191 182 175 169 165 162 158 155 154 153 153 151 153 155 154 147 143 162 234 275 296 304 295 291 289 289 288 289 286 284 281 280 277 274 274 274 275 279 279 277 274 273
198 199 196 183 171 165 163 158 153 151 154 157 158 157 155 153 153 165 186 228 278 291 290 291 293 293 293 293 297 296 291 286 281 279 275 274 275 274 276 278 283 279 273
204 201 194 178 174 170 165 159 157 152 154 157 158 157 161 162 169 186 216 258 280 283 287 291 293 297 298 304 302 298 289 285 279 279 279 278 274 275 275 275 278 276 273
203 198 194 185 175 169 162 158 153 146 148 151 154 158 162 171 192 204 229 255 271 281 288 292 296 297 302 305 303 303 294 287 282 281 282 282 281 281 279 279 277 273 269
204 190 181 170 159 149 146 140 140 142 143 145 151 152 165 185 213 240 252 262 270 280 289 295 298 300 306 309 308 306 296 287 283 280 280 280 281 281 285 283 280 277 273
206 180 165 157 150 147 144 139 137 138 142 147 150 151 176 201 222 243 261 268 272 282 292 298 298 298 304 311 311 310 299 290 288 285 280 281 281 285 286 283 281 281 281
142 143 143 142 144 144 143 141 141 146 156 159 159 171 209 227 239 253 267 273 276 283 295 295 294 295 299 307 309 310 302 296 294 291 285 280 284 291 291 284 283 284 288
109 128 137 145 147 146 148 147 147 159 160 152 163 199 228 247 260 271 273 277 283 287 290 290 293 295 297 301 308 314 306 300 297 293 293 292 298 296 293 288 283 286 292
101 120 135 136 135 142 147 149 152 148 141 153 171 193 262 296 279 274 283 288 288 288 291 293 297 298 300 304 309 313 311 309 299 295 296 300 304 303 299 292 291 294 294
103 119 129 124 119 129 145 150 143 131 140 149 152 102 356 315 286 277 283 288 285 284 291 293 296 303 307 306 308 309 310 310 305 297 298 302 303 302 297 295 293 291 284
109 123 124 120 114 114 121 135 132 142 154 157 144 63 341 314 301 295 283 281 282 284 288 292 295 300 301 303 309 307 307 306 305 301 298 296 295 294 293 296 294 286 283
108 118 121 118 113 106 103 101 114 136 143 142 121 339 309 290 291 292 290 288 287 292 291 291 292 296 298 308 314 313 310 310 308 307 298 296 299 300 301 300 300 296 295
109 117 119 117 112 103 87 72 81 117 135 193 284 288 282 284 285 289 295 291 289 301 301 301 301 297 300 309 313 313 312 313 313 308 296 300 301 301 302 304 304 301 299